Hamilton, TX

9:11 PM CDT on October 21, 2017 (GMT -0500)
Hamilton Municipal

Weather History for KMNZ - May, 2014

Change the Weather History Date:

Thursday, May 29, 2014

  Actual Average (KACT) Record (KACT)
Temperature  
Mean Temperature 74 °F -  
Max Temperature 85 °F 87 °F 99 °F (1996)
Min Temperature 64 °F 66 °F 50 °F (1947)
Cooling Degree Days 10    
Growing Degree Days 24 (Base 50)    
Moisture  
Dew Point 63 °F    
Average Humidity 69    
Maximum Humidity 100    
Minimum Humidity 42    
Precipitation  
Precipitation 0.00 in - - ()
Sea Level Pressure  
Sea Level Pressure 29.92 in    
Wind  
Wind Speed 6 mph (NNW)    
Max Wind Speed 14 mph    
Max Gust Speed 20 mph    
Visibility 10 miles    
Events      
Averages and records for this station are not official NWS values.
T = Trace of Precipitation, MM = Missing Value Source: NWS Daily Summary

Daily Weather History Graph

Daily Weather History Graph

Search for Another Location

Airport or City:

Trip Planner

Search our weather history database for the weather conditions in past years. The results will help you decide how hot, cold, wet, or windy it might be!

Date:

Astronomy

May. 29, 2014 Rise Set
Actual Time 6:28 AM CDT 8:31 PM CDT
Civil Twilight 6:01 AM CDT 8:58 PM CDT
Nautical Twilight 5:28 AM CDT 9:32 PM CDT
Astronomical Twilight 4:52 AM CDT 10:08 PM CDT
Moon 7:20 AM CDT (5/29) 9:25 PM CDT (5/29)
Length of Visible Light 14h 57m
Length of Day
14h 02m
New Moon, 1% of the Moon is Illuminated
May 29
New Moon
Jun 5
First Quarter
Jun 12
Full
Jun 19
Last Quarter
Jun 27
New

Hourly Weather History & Observations

Time (CDT) Temp. Heat Index Dew Point Humidity Pressure Visibility Wind Dir Wind Speed Gust Speed Precip Events Conditions
12:15 AM 69.1 °F - 61.7 °F 77% 29.94 in 10.0 mi NNW 3.5 mph - N/A   Clear
12:35 AM 68.4 °F - 61.9 °F 80% 29.94 in 10.0 mi NNW 3.5 mph - N/A   Clear
12:55 AM 67.5 °F - 62.1 °F 83% 29.93 in 10.0 mi NW 4.6 mph - N/A   Clear
1:15 AM 67.5 °F - 62.1 °F 83% 29.93 in 10.0 mi NW 4.6 mph - N/A   Clear
1:35 AM 67.3 °F - 61.9 °F 83% 29.92 in 10.0 mi WNW 10.4 mph - N/A   Clear
1:55 AM 66.4 °F - 63.9 °F 92% 29.93 in 10.0 mi WNW 10.4 mph - N/A   Clear
2:15 AM 66.4 °F - 63.9 °F 92% 29.92 in 10.0 mi NW 6.9 mph - N/A   Clear
2:35 AM 66.0 °F - 64.2 °F 94% 29.92 in 10.0 mi WNW 5.8 mph - N/A   Clear
2:55 AM 66.2 °F - 64.4 °F 94% 29.92 in 10.0 mi WNW 11.5 mph - N/A   Clear
3:15 AM 65.8 °F - 64.6 °F 96% 29.91 in 10.0 mi North 9.2 mph - N/A   Clear
3:35 AM 65.7 °F - 64.4 °F 96% 29.92 in 10.0 mi NNW 5.8 mph - N/A   Clear
4:15 AM 65.3 °F - 64.8 °F 98% 29.92 in 10.0 mi NW 10.4 mph - N/A   Clear
4:35 AM 65.3 °F - 64.4 °F 97% 29.92 in 10.0 mi WNW 9.2 mph - N/A   Clear
4:55 AM 64.9 °F - 64.4 °F 98% 29.92 in 10.0 mi WNW 11.5 mph - N/A   Clear
5:15 AM 64.9 °F - 64.2 °F 98% 29.92 in 10.0 mi WNW 8.1 mph - N/A   Clear
5:35 AM 65.3 °F - 63.7 °F 94% 29.92 in 10.0 mi NW 9.2 mph - N/A   Clear
5:55 AM 64.9 °F - 63.7 °F 96% 29.93 in 10.0 mi NW 6.9 mph - N/A   Clear
6:15 AM 64.6 °F - 64.0 °F 98% 29.93 in 10.0 mi WNW 6.9 mph - N/A   Clear
6:35 AM 64.4 °F - 64.4 °F 100% 29.93 in 10.0 mi NW 5.8 mph - N/A   Clear
6:55 AM 64.4 °F - 64.4 °F 100% 29.94 in 10.0 mi NW 5.8 mph - N/A   Clear
7:15 AM 64.6 °F - 64.6 °F 100% 29.93 in 10.0 mi WNW 3.5 mph - N/A   Clear
7:35 AM 66.4 °F - 66.0 °F 99% 29.94 in 10.0 mi WNW 3.5 mph - N/A   Clear
7:55 AM 67.6 °F - 64.8 °F 90% 29.94 in 10.0 mi North 5.8 mph - N/A   Clear
8:15 AM 69.4 °F - 64.9 °F 86% 29.95 in 10.0 mi North 10.4 mph - N/A   Clear
8:35 AM 70.2 °F - 64.6 °F 82% 29.95 in 10.0 mi NNW 8.1 mph - N/A   Clear
8:55 AM 71.6 °F - 64.8 °F 79% 29.96 in 10.0 mi NW 8.1 mph - N/A   Clear
9:15 AM 72.5 °F - 64.6 °F 76% 29.97 in 10.0 mi North 9.2 mph - N/A   Clear
9:35 AM 73.4 °F - 64.9 °F 75% 29.97 in 10.0 mi NW 4.6 mph - N/A   Clear
9:55 AM 74.8 °F - 64.2 °F 69% 29.97 in 10.0 mi North 10.4 mph - N/A   Clear
10:15 AM 76.3 °F - 64.0 °F 66% 29.97 in 10.0 mi North 9.2 mph - N/A   Clear
10:35 AM 76.3 °F - 63.5 °F 64% 29.97 in 10.0 mi NNE 10.4 mph - N/A   Clear
10:55 AM 77.0 °F - 63.5 °F 63% 29.97 in 10.0 mi North 10.4 mph - N/A   Mostly Cloudy
11:15 AM 76.1 °F - 63.7 °F 65% 29.97 in 10.0 mi NNW 4.6 mph - N/A   Overcast
11:35 AM 78.6 °F - 62.8 °F 58% 29.97 in 10.0 mi NNE 8.1 mph - N/A   Mostly Cloudy
11:55 AM 78.8 °F - 63.1 °F 59% 29.96 in 10.0 mi North 11.5 mph 16.1 mph N/A   Mostly Cloudy
12:15 PM 79.9 °F - 63.0 °F 56% 29.96 in 10.0 mi NNW 6.9 mph - N/A   Mostly Cloudy
12:35 PM 81.5 °F 82.9 °F 63.7 °F 55% 29.96 in 10.0 mi NNW 6.9 mph 16.1 mph N/A   Mostly Cloudy
1:15 PM 81.0 °F 81.9 °F 62.1 °F 52% 29.95 in 10.0 mi NNW 6.9 mph - N/A   Mostly Cloudy
1:35 PM 82.6 °F 83.4 °F 62.4 °F 50% 29.94 in 10.0 mi North 8.1 mph - N/A   Mostly Cloudy
1:55 PM 82.0 °F 82.5 °F 60.6 °F 48% 29.94 in 10.0 mi Calm Calm - N/A   Mostly Cloudy
2:15 PM 81.1 °F 82.0 °F 61.3 °F 51% 29.94 in 10.0 mi Calm Calm - N/A   Overcast
2:55 PM 82.6 °F 83.1 °F 61.3 °F 48% 29.92 in 10.0 mi NNE 10.4 mph 18.4 mph N/A   Mostly Cloudy
3:15 PM 83.5 °F 83.9 °F 61.5 °F 47% 29.92 in 10.0 mi NNW 5.8 mph 18.4 mph N/A   Mostly Cloudy
3:35 PM 81.9 °F 82.6 °F 61.7 °F 50% 29.92 in 10.0 mi NNE 13.8 mph 17.3 mph N/A   Overcast
3:55 PM 83.7 °F 83.9 °F 61.0 °F 46% 29.91 in 10.0 mi NNE 6.9 mph - N/A   Scattered Clouds
4:15 PM 84.6 °F 84.8 °F 61.0 °F 45% 29.90 in 10.0 mi NNE 5.8 mph 17.3 mph N/A   Scattered Clouds
4:35 PM 85.5 °F 85.2 °F 59.7 °F 42% 29.90 in 10.0 mi North 8.1 mph 18.4 mph N/A   Scattered Clouds
4:55 PM 83.3 °F 83.4 °F 59.9 °F 45% 29.90 in 10.0 mi NNW 6.9 mph 19.6 mph N/A   Mostly Cloudy
5:15 PM 84.9 °F 84.8 °F 60.1 °F 43% 29.89 in 10.0 mi NNW 8.1 mph 18.4 mph N/A   Mostly Cloudy
5:35 PM 85.1 °F 85.0 °F 60.1 °F 43% 29.89 in 10.0 mi North 5.8 mph 18.4 mph N/A   Scattered Clouds
5:55 PM 83.1 °F 83.2 °F 59.7 °F 45% 29.88 in 10.0 mi North 5.8 mph 17.3 mph N/A   Scattered Clouds
6:15 PM 84.6 °F 84.6 °F 60.3 °F 44% 29.88 in 10.0 mi North 8.1 mph 18.4 mph N/A   Scattered Clouds
6:35 PM 85.1 °F 84.8 °F 59.9 °F 42% 29.87 in 10.0 mi North 11.5 mph 17.3 mph N/A   Clear
6:55 PM 84.4 °F 84.2 °F 59.5 °F 43% 29.87 in 10.0 mi North 4.6 mph - N/A   Clear
7:15 PM 83.8 °F 83.8 °F 59.9 °F 44% 29.87 in 10.0 mi NNW 6.9 mph 17.3 mph N/A   Clear
7:35 PM 83.3 °F 83.4 °F 59.7 °F 45% 29.88 in 10.0 mi Calm Calm - N/A   Clear
7:55 PM 82.6 °F 83.2 °F 61.5 °F 49% 29.88 in 10.0 mi Calm Calm - N/A   Clear
8:15 PM 81.3 °F 82.6 °F 63.0 °F 54% 29.88 in 10.0 mi Calm Calm - N/A   Clear
8:55 PM 78.1 °F - 64.0 °F 62% 29.89 in 10.0 mi Calm Calm - N/A   Clear
9:15 PM 78.1 °F - 62.6 °F 59% 29.89 in 10.0 mi Calm Calm - N/A   Clear
9:35 PM 77.0 °F - 63.0 °F 62% 29.89 in 10.0 mi Calm Calm - N/A   Clear
9:55 PM 77.4 °F - 62.6 °F 60% 29.90 in 10.0 mi Calm Calm - N/A   Clear
10:15 PM 77.9 °F - 61.3 °F 57% 29.90 in 10.0 mi Calm Calm - N/A   Clear
10:35 PM 77.7 °F - 61.0 °F 56% 29.90 in 10.0 mi Calm Calm - N/A   Clear
10:55 PM 76.8 °F - 61.2 °F 58% 29.90 in 10.0 mi Calm Calm - N/A   Clear
11:15 PM 76.6 °F - 61.0 °F 58% 29.91 in 10.0 mi Calm Calm - N/A   Clear
11:35 PM 71.8 °F - 63.1 °F 74% 29.91 in 10.0 mi SW 3.5 mph - N/A   Clear
11:55 PM 71.8 °F - 63.7 °F 76% 29.91 in 10.0 mi WSW 3.5 mph - N/A   Clear